Location: Nelson
(41.2830°S, 173.2830°E)
Time: 07:34:20
(UTC+12:00)

ISS - Pass Details

Date: 19 May 2025
Orbit: 415 x 416 km, 51.6° (Epoch: 16 June)

Event Time Altitude Azimuth Distance (km) Brightness Sun altitude
Exits shadow 05:02:35 23° 87° (E) 965 -1.3 -27.8°
Drops below altitude 10° 05:04:18 10° 108° (ESE) 1,524 -0.1 -27.5°
Sets 05:06:32 0° 118° (ESE) 2,397 1.0 -27.1°
